EN

Hourly Weather 1-e Itkulovo

Today, 15 June, Tuesday

Time Temperature Precipitation Wind Pressure Humidity
00:00 +18°C° 0 mm 2 mps 719 mmHg 48%
01:00 +17°C° 0 mm 2 mps 719 mmHg 47%
02:00 +18°C° 0 mm 1 mps 719 mmHg 48%
03:00 +18°C° 0 mm 1 mps 719 mmHg 49%
04:00 +18°C° 0 mm 1 mps 719 mmHg 50%
05:00 +19°C° 0 mm 1 mps 719 mmHg 50%
06:00 +21°C° 0 mm 1 mps 720 mmHg 51%
07:00 +23°C° 0 mm 1 mps 720 mmHg 51%
08:00 +24°C° 0 mm 2 mps 720 mmHg 47%
09:00 +26°C° 0 mm 3 mps 720 mmHg 42%
10:00 +28°C° 0 mm 3 mps 720 mmHg 36%
11:00 +29°C° 0 mm 3 mps 720 mmHg 34%
12:00 +29°C° 0 mm 3 mps 719 mmHg 32%
13:00 +30°C° 0 mm 3 mps 719 mmHg 29%
14:00 +30°C° 0 mm 3 mps 719 mmHg 30%
15:00 +30°C° 0 mm 3 mps 719 mmHg 31%
16:00 +30°C° 0 mm 3 mps 719 mmHg 33%
17:00 +28°C° 0 mm 2 mps 718 mmHg 38%
18:00 +27°C° 0 mm 1 mps 718 mmHg 44%
19:00 +24°C° 0 mm 0 mps 718 mmHg 50%
20:00 +24°C° 0 mm 1 mps 718 mmHg 51%
21:00 +22°C° 0 mm 1 mps 718 mmHg 51%
22:00 +21°C° 0 mm 1 mps 717 mmHg 52%
23:00 +20°C° 0 mm 1 mps 717 mmHg 51%

Tomorrow, 16 June, Wednesday

Time Temperature Precipitation Wind Pressure Humidity
00:00 +20°C° 0 mm 1 mps 717 mmHg 50%
01:00 +20°C° 0 mm 1 mps 717 mmHg 49%
02:00 +20°C° 0 mm 1 mps 717 mmHg 49%
03:00 +19°C° 0 mm 1 mps 717 mmHg 50%
04:00 +19°C° 0 mm 1 mps 717 mmHg 51%
05:00 +21°C° 0 mm 1 mps 717 mmHg 50%
06:00 +23°C° 0 mm 2 mps 717 mmHg 49%
07:00 +24°C° 0 mm 2 mps 718 mmHg 48%
08:00 +26°C° 0 mm 2 mps 718 mmHg 44%
09:00 +28°C° 0 mm 3 mps 718 mmHg 39%
10:00 +29°C° 0 mm 4 mps 718 mmHg 34%
11:00 +30°C° 0 mm 4 mps 718 mmHg 32%
12:00 +30°C° 0 mm 4 mps 718 mmHg 31%
13:00 +32°C° 0 mm 4 mps 718 mmHg 29%
14:00 +30°C° 0 mm 4 mps 717 mmHg 32%
15:00 +30°C° 0 mm 3 mps 717 mmHg 34%
16:00 +29°C° 0 mm 3 mps 717 mmHg 37%
17:00 +28°C° 0 mm 2 mps 717 mmHg 41%
18:00 +27°C° 0 mm 2 mps 716 mmHg 44%
19:00 +26°C° 0 mm 1 mps 716 mmHg 48%
20:00 +25°C° 0 mm 2 mps 716 mmHg 45%
21:00 +24°C° 0 mm 3 mps 716 mmHg 43%
22:00 +23°C° 0 mm 4 mps 716 mmHg 40%
23:00 +22°C° 0.1 mm 4 mps 715 mmHg 46%

Day after tomorrow, 17 June, Thursday

Time Temperature Precipitation Wind Pressure Humidity
00:00 +21°C° 0.1 mm 3 mps 715 mmHg 52%
01:00 +20°C° 0.1 mm 3 mps 714 mmHg 57%
02:00 +19°C° 0 mm 3 mps 714 mmHg 59%
03:00 +18°C° 0 mm 2 mps 714 mmHg 61%
04:00 +18°C° 0 mm 2 mps 713 mmHg 63%
05:00 +19°C° 0 mm 3 mps 713 mmHg 61%
06:00 +21°C° 0 mm 3 mps 713 mmHg 58%
07:00 +22°C° 0 mm 3 mps 713 mmHg 56%
08:00 +24°C° 0 mm 3 mps 713 mmHg 52%
09:00 +26°C° 0 mm 3 mps 713 mmHg 48%
10:00 +27°C° 0 mm 4 mps 713 mmHg 44%
11:00 +28°C° 0 mm 4 mps 713 mmHg 43%
12:00 +29°C° 0 mm 5 mps 713 mmHg 41%
13:00 +29°C° 0 mm 5 mps 713 mmHg 40%
14:00 +28°C° 0 mm 6 mps 713 mmHg 46%
15:00 +27°C° 0 mm 6 mps 713 mmHg 52%
16:00 +26°C° 0 mm 6 mps 713 mmHg 59%
17:00 +24°C° 0 mm 6 mps 713 mmHg 65%
18:00 +23°C° 0 mm 6 mps 713 mmHg 70%
19:00 +21°C° 0 mm 6 mps 713 mmHg 76%
20:00 +20°C° 0 mm 6 mps 713 mmHg 78%
21:00 +17°C° 0 mm 5 mps 713 mmHg 80%
22:00 +15°C° 0 mm 5 mps 714 mmHg 81%
23:00 +14°C° 0 mm 5 mps 714 mmHg 82%

18 June, Friday

Time Temperature Precipitation Wind Pressure Humidity
00:00 +13°C° 0 mm 4 mps 714 mmHg 83%
01:00 +12°C° 0 mm 4 mps 714 mmHg 85%
02:00 +11°C° 0 mm 3 mps 714 mmHg 87%
03:00 +11°C° 0 mm 3 mps 714 mmHg 90%
04:00 +10°C° 0 mm 3 mps 714 mmHg 92%
05:00 +12°C° 0 mm 3 mps 715 mmHg 81%
06:00 +13°C° 0 mm 4 mps 715 mmHg 69%
07:00 +15°C° 0 mm 5 mps 716 mmHg 57%
08:00 +16°C° 0 mm 5 mps 716 mmHg 52%
09:00 +17°C° 0 mm 5 mps 716 mmHg 46%
10:00 +20°C° 0 mm 6 mps 717 mmHg 40%
11:00 +20°C° 0 mm 6 mps 717 mmHg 39%
12:00 +20°C° 0 mm 6 mps 717 mmHg 38%
13:00 +21°C° 0 mm 6 mps 717 mmHg 37%
14:00 +20°C° 0 mm 6 mps 718 mmHg 38%
15:00 +19°C° 0 mm 5 mps 718 mmHg 40%
16:00 +19°C° 0 mm 5 mps 718 mmHg 41%
17:00 +18°C° 0 mm 4 mps 719 mmHg 45%
18:00 +18°C° 0 mm 3 mps 719 mmHg 48%
19:00 +17°C° 0 mm 2 mps 719 mmHg 52%
20:00 +16°C° 0 mm 2 mps 720 mmHg 56%
21:00 +14°C° 0 mm 2 mps 720 mmHg 60%
22:00 +12°C° 0 mm 2 mps 720 mmHg 64%
23:00 +12°C° 0 mm 2 mps 721 mmHg 66%

19 June, Saturday

Time Temperature Precipitation Wind Pressure Humidity
00:00 +10°C° 0 mm 2 mps 721 mmHg 69%
01:00 +9°C° 0 mm 2 mps 721 mmHg 71%
02:00 +9°C° 0 mm 2 mps 722 mmHg 71%
03:00 +8°C° 0 mm 2 mps 722 mmHg 71%
04:00 +8°C° 0 mm 2 mps 722 mmHg 71%
05:00 +10°C° 0 mm 2 mps 723 mmHg 66%
06:00 +13°C° 0 mm 2 mps 723 mmHg 60%
07:00 +15°C° 0 mm 2 mps 723 mmHg 55%
08:00 +16°C° 0 mm 3 mps 723 mmHg 50%
09:00 +18°C° 0 mm 3 mps 723 mmHg 44%
10:00 +19°C° 0 mm 3 mps 723 mmHg 38%
11:00 +20°C° 0 mm 3 mps 723 mmHg 38%
12:00 +21°C° 0 mm 3 mps 723 mmHg 37%
13:00 +22°C° 0 mm 4 mps 722 mmHg 37%
14:00 +22°C° 0 mm 4 mps 722 mmHg 38%
15:00 +23°C° 0 mm 5 mps 722 mmHg 39%
16:00 +23°C° 0 mm 6 mps 721 mmHg 40%
17:00 +21°C° 0 mm 6 mps 721 mmHg 46%
18:00 +20°C° 0 mm 5 mps 721 mmHg 52%
19:00 +19°C° 0 mm 5 mps 721 mmHg 58%
20:00 +17°C° 0 mm 4 mps 721 mmHg 66%
21:00 +15°C° 0 mm 4 mps 721 mmHg 74%
22:00 +13°C° 0 mm 3 mps 721 mmHg 81%
23:00 +13°C° 0 mm 4 mps 720 mmHg 83%

20 June, Sunday

Time Temperature Precipitation Wind Pressure Humidity
00:00 +13°C° 0 mm 4 mps 720 mmHg 85%
01:00 +13°C° 0 mm 4 mps 720 mmHg 87%
02:00 +13°C° 0 mm 4 mps 720 mmHg 88%
03:00 +13°C° 0 mm 5 mps 719 mmHg 89%
04:00 +13°C° 0 mm 5 mps 719 mmHg 90%
05:00 +15°C° 0 mm 5 mps 719 mmHg 87%
06:00 +16°C° 0 mm 6 mps 719 mmHg 83%
07:00 +17°C° 0 mm 6 mps 719 mmHg 80%
08:00 +20°C° 0 mm 7 mps 719 mmHg 71%
09:00 +22°C° 0 mm 7 mps 719 mmHg 62%
10:00 +24°C° 0 mm 7 mps 719 mmHg 52%
11:00 +26°C° 0 mm 7 mps 719 mmHg 51%
12:00 +26°C° 0 mm 7 mps 719 mmHg 51%
13:00 +27°C° 0 mm 7 mps 719 mmHg 50%
14:00 +26°C° 0 mm 7 mps 718 mmHg 50%
15:00 +26°C° 0 mm 7 mps 718 mmHg 50%
16:00 +26°C° 0 mm 7 mps 718 mmHg 49%
17:00 +24°C° 0 mm 7 mps 719 mmHg 49%
18:00 +22°C° 0 mm 6 mps 719 mmHg 48%
19:00 +21°C° 0 mm 6 mps 719 mmHg 47%
20:00 +17°C° 0 mm 5 mps 719 mmHg 54%
21:00 +14°C° 0 mm 4 mps 719 mmHg 60%
22:00 +11°C° 0 mm 3 mps 719 mmHg 67%
23:00 +12°C° 0 mm 2 mps 719 mmHg 70%
Show more